Fort Campbell, KY

12:50 AM CDT on April 27, 2018 (GMT -0500)
Campbell Army Air Field

Weather History for KHOP - December, 2012

Change the Weather History Date:

Sunday, December 23, 2012

  Actual Average Record
Temperature  
Mean Temperature 48 °F -  
Max Temperature 57 °F 43 °F 69 °F (2015)
Min Temperature 40 °F 25 °F 8 °F (2000)
Degree Days  
Heating Degree Days 16    
Moisture  
Dew Point 41 °F    
Average Humidity 77    
Maximum Humidity 100    
Minimum Humidity 49    
Precipitation  
Precipitation 0.00 in - - ()
Sea Level Pressure  
Sea Level Pressure 29.96 in    
Wind  
Wind Speed 10 mph (South)    
Max Wind Speed 14 mph    
Max Gust Speed -    
Visibility 8 miles    
Events      
Averages and records for this station are not official NWS values.
T = Trace of Precipitation, MM = Missing Value Source: NWS Daily Summary

Daily Weather History Graph

Daily Weather History Graph

Search for Another Location

Airport or City:

Astronomy

Dec. 23, 2012 Rise Set
Actual Time 6:59 AM CST 4:39 PM CST
Civil Twilight 6:30 AM CST 5:07 PM CST
Nautical Twilight 5:58 AM CST 5:40 PM CST
Astronomical Twilight 5:26 AM CST 6:11 PM CST
Moon 1:26 PM CST (12/23) 2:45 AM CST (12/23)
Length of Visible Light 10h 37m
Length of Day
9h 39m
Waxing Gibbous, 82% of the Moon is Illuminated
Dec 23
Waxing Gibbous
Dec 28
Full
Jan 4
Last Quarter
Jan 11
New
Jan 18
First Quarter

Hourly Weather History & Observations

Time (CST) Temp. Windchill Dew Point Humidity Pressure Visibility Wind Dir Wind Speed Gust Speed Precip Events Conditions
12:55 AM 40.5 °F 32.8 °F 25.3 °F 55% 30.08 in 10.0 mi SW 13.8 mph - N/A   Clear
1:55 AM 40.5 °F 33.2 °F 25.2 °F 54% 30.08 in 10.0 mi SW 12.7 mph - N/A   Clear
2:55 AM 41.4 °F 35.7 °F 25.0 °F 52% 30.07 in 10.0 mi SSW 9.2 mph - N/A   Clear
3:55 AM 41.5 °F 36.4 °F 25.3 °F 53% 30.06 in 10.0 mi SSW 8.1 mph - N/A   Scattered Clouds
4:55 AM 42.1 °F 36.6 °F 25.0 °F 51% 30.04 in 10.0 mi South 9.2 mph - N/A   Clear
5:55 AM 43.2 °F 37.4 °F 25.2 °F 49% 30.04 in 10.0 mi SSW 10.4 mph - N/A   Clear
6:55 AM 42.8 °F 37.5 °F 26.4 °F 52% 30.04 in 10.0 mi SSW 9.2 mph - N/A   Clear
7:55 AM 44.8 °F 39.9 °F 28.6 °F 53% 30.04 in 10.0 mi SSW 9.2 mph - N/A   Scattered Clouds
8:55 AM 49.5 °F - 31.3 °F 50% 30.04 in 10.0 mi SSW 10.4 mph - N/A   Clear
9:55 AM 52.7 °F - 36.0 °F 53% 30.04 in 10.0 mi WSW 13.8 mph - N/A   Scattered Clouds
10:55 AM 53.6 °F - 38.1 °F 56% 30.03 in 10.0 mi SW 12.7 mph - N/A   Overcast
11:55 AM 55.6 °F - 39.2 °F 54% 29.99 in 10.0 mi SW 13.8 mph - N/A   Partly Cloudy
12:55 PM 55.2 °F - 39.2 °F 55% 29.96 in 10.0 mi SW 10.4 mph - N/A   Mostly Cloudy
1:55 PM 57.7 °F - 40.3 °F 52% 29.94 in 10.0 mi SSW 8.1 mph - N/A   Scattered Clouds
2:55 PM 55.6 °F - 40.3 °F 56% 29.94 in 10.0 mi South 8.1 mph - N/A   Partly Cloudy
3:55 PM 54.7 °F - 42.1 °F 62% 29.93 in 10.0 mi South 6.9 mph - N/A   Mostly Cloudy
4:55 PM 51.6 °F - 44.6 °F 77% 29.93 in 10.0 mi South 9.2 mph - N/A   Mostly Cloudy
5:35 PM 50.0 °F - 48.2 °F 94% 29.94 in 10.0 mi South 9.2 mph - N/A   Overcast
5:42 PM 50.0 °F - 48.2 °F 94% 29.93 in 10.0 mi South 10.4 mph - N/A   Overcast
5:55 PM 49.6 °F - 48.4 °F 95% 29.94 in 10.0 mi South 11.5 mph - N/A   Overcast
6:55 PM 49.3 °F - 48.7 °F 98% 29.94 in 10.0 mi South 6.9 mph - N/A   Overcast
7:01 PM 50.0 °F - 48.2 °F 94% 29.94 in 10.0 mi South 6.9 mph - N/A   Overcast
7:15 PM 48.2 °F - 48.2 °F 100% 29.94 in 10.0 mi South 9.2 mph - N/A   Overcast
7:26 PM 48.2 °F - 48.2 °F 100% 29.94 in 10.0 mi South 5.8 mph - N/A   Overcast
7:40 PM 48.2 °F - 48.2 °F 100% 29.93 in 10.0 mi Variable 6.9 mph - N/A   Overcast
7:55 PM 48.4 °F - 48.4 °F 100% 29.93 in 9.0 mi SSE 5.8 mph - N/A   Overcast
8:55 PM 47.3 °F - 47.3 °F 100% 29.92 in 5.0 mi SSE 6.9 mph - N/A   Overcast
9:09 PM 48.2 °F - 48.2 °F 100% 29.91 in 4.0 mi SSE 6.9 mph - N/A   Overcast
9:55 PM 47.3 °F - 47.3 °F 100% 29.90 in 4.0 mi SSE 6.9 mph - N/A   Overcast
10:51 PM 48.2 °F - 48.2 °F 100% 29.88 in 3.0 mi SE 4.6 mph - N/A   Light Drizzle
10:55 PM 47.7 °F - 47.7 °F 100% 29.88 in 3.0 mi SE 5.8 mph - 0.00 in   Light Drizzle
11:06 PM 48.2 °F - 48.2 °F 100% 29.88 in 4.0 mi SE 3.5 mph - N/A   Overcast
11:48 PM 48.2 °F - 48.2 °F 100% 29.86 in 3.0 mi SE 4.6 mph - N/A   Light Drizzle
11:55 PM 47.7 °F - 47.7 °F 100% 29.86 in 3.0 mi SSE 4.6 mph - 0.00 in   Light Drizzle
11:57 PM 48.2 °F - 48.2 °F 100% 29.86 in 3.0 mi SE 4.6 mph - N/A   Overcast